Location: Newark
(31.5350°N, 35.0986°E)
Time: 11:53:00
(UTC+00:00)

Explorer 7 - Pass Details

Date: 23 October 2019
Orbit: 485 x 680 km, 50.3° (Epoch: 13 November)

Event Time Altitude Azimuth Distance (km) Brightness Sun altitude
Rises 15:22:49 0° 302° (WNW) 2,639 11.1 -5.7°
Reaches altitude 10° 15:25:08 10° 291° (WNW) 1,778 10.5 -6.2°
Maximum altitude 15:28:43 31° 229° (SW) 985 8.8 -7.0°
Drops below altitude 10° 15:32:29 10° 167° (SSE) 1,875 9.5 -7.8°
Sets 15:35:00 0° 157° (SSE) 2,809 10.3 -8.3°
